Location: Friedrichshafen
(47.6598°N, 9.4819°E)
Time: 14:42:14
(UTC+01:00)

ISS - Pass Details

Date: 11 January 2018
Orbit: 402 x 407 km, 51.6° (Epoch: 18 January)

Event Time Altitude Azimuth Distance (km) Brightness Sun altitude
Exits shadow 05:41:18 36° 72° (ENE) 667 -2.3 -24.0°
Drops below altitude 10° 05:43:30 10° 94° (E) 1,466 0.1 -23.6°
Sets 05:45:37 0° 99° (E) 2,326 1.5 -23.2°
